Regional Weather Roundup
Issued by NWS Northern Indiana

Home | Current Version | Previous Version | Text Only | Print | Product List | Glossary Off
Versions: 1 2 3 4 5 6 7 8 9 10 11 12 13 14 15 16 17 18 19 20 21 22 23 24 25 26 27 28 29 30 31 32 33 34 35 36 37 38 39 40 41 42 43 44 45 46 47 48 49 50

000
ASUS43 KIWX 251210
RWRIWX

KIWX WEATHER ROUNDUP
NATIONAL WEATHER SERVICE NORTHERN INDIANA
800 AM EDT WED APR 25 2018

NOTE: "FAIR" INDICATES FEW OR NO CLOUDS BELOW 12,000 FEET WITH NO
SIGNIFICANT WEATHER AND/OR OBSTRUCTIONS TO VISIBILITY.

* THESE STATIONS ARE NOT UNDER NWS QUALITY CONTROL. THEY ALSO MAY NOT
  REPORT WEATHER SUCH AS PRECIPITATION OR FOG.

INZ001>027-251300-
NORTHERN INDIANA

CITY           SKY/WX    TMP DP  RH WIND       PRES   REMARKS
GARY*          PTSUNNY   43  36  75 N23       30.09R
VALPARAISO     FAIR      44  35  70 N15G22    30.05R
6HR MIN TEMP:  43; 6HR MAX TEMP:  47;

MICHIGAN CITY* FAIR      41  34  75 N12G18    30.06R
LAPORTE*       FAIR      42  36  80 N13G20    30.04R
6HR MIN TEMP:  42; 6HR MAX TEMP:  44;

KNOX*          CLOUDY    45  39  81 NW10      30.03R
SOUTH BEND     PTSUNNY   46  40  79 N9        30.03R
6HR MIN TEMP:  46; 6HR MAX TEMP:  51;

ELKHART*       CLOUDY    50  46  87 N9        30.00R
GOSHEN         CLOUDY    52  50  93 NW13      29.99R FOG
6HR MIN TEMP:  50; 6HR MAX TEMP:  53; 6HR PCP: TRACE;

MONTICELLO*    CLOUDY    44  42  95 N7        30.02R
6HR MIN TEMP:  43; 6HR MAX TEMP:  49;

LOGANSPORT*    FOG       45  45 100 NW8       30.02R VSB 1/4
ROCHESTER*     CLOUDY    50  50 100 N7        30.01R FOG
WARSAW*        CLOUDY    50  50 100 NW8       29.99R FOG
AUBURN*        CLOUDY    52  48  87 N13G20    29.96R
FORT WAYNE     PTSUNNY   53  50  89 N10       29.96R
6HR MIN TEMP:  50; 6HR MAX TEMP:  53; 6HR PCP: TRACE;

HUNTINGTON*    PTSUNNY   52  50  95 N7        29.97R
6HR MIN TEMP:  50; 6HR MAX TEMP:  52;

PERU/GRISSOM   CLOUDY    49  49 100 NW12      29.98R FOG
6HR MIN TEMP:  49; 6HR MAX TEMP:  53;

MARION*        CLOUDY    52  50  94 CALM      29.98R
6HR MIN TEMP:  28; 6HR MAX TEMP:  63;


$$
INZ028>050-251300-
CENTRAL INDIANA

CITY           SKY/WX    TMP DP  RH WIND       PRES   REMARKS
LAFAYETTE      CLOUDY    44  43  96 N7        30.02R FOG
6HR MIN TEMP:  43; 6HR MAX TEMP:  51;

KOKOMO*        CLOUDY    50  48  93 NW14      30.00R FOG
6HR MIN TEMP:  50; 6HR MAX TEMP:  53;

MUNCIE*        CLOUDY    53  50  89 N10       29.95R
6HR MIN TEMP:  52; 6HR MAX TEMP:  54;

INDIANAPOLIS   CLOUDY    51  49  92 NW10      29.99R FOG
6HR MIN TEMP:  47; 6HR MAX TEMP:  53;


$$
MIZ043>046-050>051-056>058-064>065-071>073-077>080-251300-
SOUTHWEST LOWER MICHIGAN

CITY           SKY/WX    TMP DP  RH WIND       PRES   REMARKS
BATTLE CREEK   CLOUDY    46  41  82 N14       30.00R
6HR MIN TEMP:  45; 6HR MAX TEMP:  52; 6HR PCP: TRACE;

BENTON HARBOR  FAIR      42  34  73 MISG      30.05R
6HR MIN TEMP:  42; 6HR MAX TEMP:  49;

COLDWATER*     CLOUDY    48  46  92 N13       29.98R
6HR MIN TEMP:  48; 6HR MAX TEMP:  52;

HILLSDALE*     FOG       46  45  93 NW12      29.94R VSB 1
HOLLAND        FAIR      45  32  60 N8        30.06R
6HR MIN TEMP:  44; 6HR MAX TEMP:  54;

GRAND RAPIDS   FAIR      44  34  67 N10       30.03R
6HR MIN TEMP:  43; 6HR MAX TEMP:  53;

KALAMAZOO      CLOUDY    47  38  71 N14G23    30.01R
6HR MIN TEMP:  47; 6HR MAX TEMP:  54;

STURGIS*       CLOUDY    50  47  89 N13       29.98R
6HR MIN TEMP:  50; 6HR MAX TEMP:  53;

THREE RIVERS*  PTSUNNY   48  42  79 N7        30.01R
6HR MIN TEMP:  48; 6HR MAX TEMP:  55;


$$
OHZ001>008-015>018-024>025-251300-
NORTHWEST OHIO

CITY           SKY/WX    TMP DP  RH WIND       PRES   REMARKS
WAUSEON*       CLOUDY    52  52 100 N8        29.92R FOG
DEFIANCE       CLOUDY    53  50  89 N9        29.93R
6HR MIN TEMP:  50; 6HR MAX TEMP:  53;

FINDLAY        FOG       51  48  89 N7        29.90R VSB 3/4
6HR MIN TEMP:  50; 6HR MAX TEMP:  51; 6HR PCP:  0.01;

TOLEDO EXPRESS CLOUDY    52  52 100 N7        29.92R FOG
6HR MIN TEMP:  49; 6HR MAX TEMP:  52; 6HR PCP:  0.01;

TOLEDO METCALF CLOUDY    51  50  96 N8        29.92R FOG
6HR MIN TEMP:  47; 6HR MAX TEMP:  51;

LIMA           CLOUDY    50  50 100 N9        29.91R FOG
6HR MIN TEMP:  49; 6HR MAX TEMP:  50; 6HR PCP:  0.01;


$$
AND FOR LAKE MICHIGAN COASTAL AND OPEN LAKE BUOY OBSERVATIONS

STATION/POSITION TEMP    WIND        PRES    VSBY  WAVE
                 AIR SEA DIR/SP/G                  HT/PER
                 (F)     (DEG/KT/KT) (MB)    (MI)  (FT/S)
CALUMET HARBOR    40     340/ 17/ 25 1018.2R
MICHIGAN CITY     40     350/ 21/ 22   N/A
BURNS HARBOR      40     360/ 14/ 17 1018.6R
SAINT JOSEPH      42      10/ 16/ 20 1017.9
4 MI NW BRIDGMAN  41 42   20/ 17/ 23 1018.5          5/ 6

$$
&&




USA.gov is the U.S. government's official web portal to all federal, state and local government web resources and services.